Regional Weather Roundup
Issued by NWS

Home | Current Version | Previous Version | Graphics & Text | Print | Product List | Glossary On
Versions: 1 2 3 4 5 6 7 8 9 10 11 12 13 14 15 16 17 18 19 20 21 22 23 24 25 26 27 28 29 30 31 32 33 34 35 36 37 38 39 40 41 42 43 44 45 46 47 48 49 50
000
ASUS43 KOAX 241710
RWRNE

WEATHER ROUNDUP FOR NEBRASKA
NATIONAL WEATHER SERVICE OMAHA NE
1200 PM CDT SAT JUN 24 2017

NOTES: SATELLITE DATA IS BEING USED TO AUGMENT CLOUD COVER ABOVE
       12000 FEET.
       "FAIR" INDICATES FEW OR NO CLOUDS BELOW 12,000 FEET WITH NO
       SIGNIFICANT WEATHER AND/OR OBSTRUCTIONS TO VISIBILITY.

  * THESE STATIONS DO NOT REPORT WEATHER SUCH AS RAIN...SNOW OR FOG.

NEZ001>004-019>022-054>056-241800-
NEBRASKA PANHANDLE

CITY           SKY/WX    TMP DP  RH WIND       PRES   REMARKS
SCOTTSBLUFF    CLOUDY    65  38  36 MISG      30.32S
ALLIANCE       SUNNY     70  34  26 NW7       30.30S
CHADRON        PTSUNNY   70  36  28 N8        30.29S
GORDON         CLOUDY    64  34  32 N10       30.30S
KIMBALL        PTSUNNY   67  37  33 SE3       30.34R
SIDNEY         CLOUDY    68  33  27 VRB3      30.32S
$$

NEZ057>060-069>072-079>082-241800-
SOUTHWEST NEBRASKA

CITY           SKY/WX    TMP DP  RH WIND       PRES   REMARKS
NORTH PLATTE   PTSUNNY   73  34  23 VRB3      30.28S
IMPERIAL       CLOUDY    68  40  35 S9        30.30F
LEXINGTON      CLOUDY    73  38  28 SW5       30.28S
MCCOOK         PTSUNNY   70  43  37 S7        30.29F
OGALLALA       CLOUDY    65  41  40 CALM      30.31R
$$

NEZ005>010-023>029-035>040-094-241800-
NORTH CENTRAL NEBRASKA

CITY           SKY/WX    TMP DP  RH WIND       PRES   REMARKS
VALENTINE      MOSUNNY   74  27  17 NW22G30   30.23F
AINSWORTH      MOSUNNY   71  34  25 NW22G29   30.24S
BROKEN BOW     SUNNY     74  33  22 W12G25    30.25S
O`NEILL        MOSUNNY   73  36  25 W17G28    30.21S
ORD            MOSUNNY   75  32  20 NW15G25   30.22S
THEDFORD       SUNNY     74  34  23 NW13G23   30.27S
$$

NEZ041-046>049-061>064-073>077-083>087-241800-
SOUTH CENTRAL NEBRASKA

CITY           SKY/WX    TMP DP  RH WIND       PRES   REMARKS
GRAND ISLAND   SUNNY     73  39  29 SW13      30.25S
AURORA         SUNNY     73  37  27 W7        30.25S
HASTINGS       MOSUNNY   72  35  25 VRB7      30.28R
HEBRON         SUNNY     75  35  22 SW5       30.25F
HOLDREGE       CLOUDY    70  36  29 SW9       30.29R
KEARNEY *      SUNNY     73  36  25 W7        30.27S
YORK           SUNNY     73  37  27 W8        30.24R
$$

NEZ011>018-030>034-042>045-241800-
NORTHEAST NEBRASKA

CITY           SKY/WX    TMP DP  RH WIND       PRES   REMARKS
NORFOLK        MOSUNNY   75  37  25 W17G25    30.18S
ALBION         MOSUNNY   75  33  21 NW15G21   30.21S
BLAIR          SUNNY     74  39  27 W7G21     30.18S
FREMONT        SUNNY     74  40  28 W20       30.19S
TEKAMAH        SUNNY     78  35  21 W21G29    30.15F
WAYNE          MOSUNNY   75  34  21 NW25G36   30.16S
$$

NEZ050>053-065>068-078-088>093-241800-
SOUTHEAST NEBRASKA

CITY           SKY/WX    TMP DP  RH WIND       PRES   REMARKS
LINCOLN        SUNNY     76  37  24 NW9       30.22S
OMAHA EPPLEY   MOSUNNY   76  40  27 W12       30.17F
BEATRICE       SUNNY     74  43  32 W8        30.24S
FALLS CITY     SUNNY     73  43  33 W8        30.23S
NEBRASKA CITY  SUNNY     72  47  41 W6        30.23S
PLATTSMOUTH    SUNNY     73  38  27 W8G16     30.21S
$$

NEZ044-045-051>053-067-241800-
OMAHA AREA

CITY           SKY/WX    TMP DP  RH WIND       PRES   REMARKS
OMAHA EPPLEY   MOSUNNY   76  40  27 W12       30.17F
BLAIR          SUNNY     74  39  27 W7G21     30.18S
FREMONT        SUNNY     74  40  28 W20       30.19S
MILLARD        SUNNY     76  42  29 W10G21    30.19S
OFFUTT AFB     SUNNY     75  39  27 W16G23    30.18F
PLATTSMOUTH    SUNNY     73  38  27 W8G16     30.21S
WAHOO          FAIR      76  32  20 W15G22    30.20S
$$




USA.gov is the U.S. government's official web portal to all federal, state and local government web resources and services.